Terminal Aerodrome Forecast
Issued by NWS Sterling, VA

Current Version | Previous Version | Text Only | Print | Product List | Glossary Off
Versions: 1 2 3 4 5 6 7 8 9 10 11 12 13 14 15 16 17 18 19 20 21 22 23 24 25 26 27

000
FTUS41 KLWX 251738
TAFIAD
TAF
KIAD 251738Z 2518/2624 23008KT P6SM SCT050
     FM252000 24009KT P6SM VCTS BKN050CB
     FM260300 25005KT P6SM BKN060
     FM260600 VRB03KT P6SM BKN060
     FM261600 32006KT P6SM BKN050=

USA.gov is the U.S. government's official web portal to all federal, state and local government web resources and services.